This is the latest recevied weather packets stored in our database for station/object ER1XDX-13. If no packets are shown the sender has not sent any weather packets the latest 10 day(s).
| Time | Temp. | Humidity | Pressure | Rain* | Wind** | Luminosity | Snow |
|---|---|---|---|---|---|---|---|
| 1778046461 | 23.89° C | 27% | 1004 hPa | - | - | - | - |
| 1778045561 | 23.89° C | 27% | 1004.1 hPa | - | - | - | - |
| 1778044661 | 24.44° C | 27% | 1004.1 hPa | - | - | - | - |
| 1778043760 | 23.89° C | 27% | 1004 hPa | - | - | - | - |
| 1778042861 | 23.89° C | 27% | 1004 hPa | - | - | - | - |
| 1778041960 | 23.89° C | 28% | 1003.9 hPa | - | - | - | - |
| 1778041060 | 23.33° C | 28% | 1003.8 hPa | - | - | - | - |
| 1778040160 | 23.33° C | 28% | 1003.8 hPa | - | - | - | - |
| 1778039260 | 22.78° C | 28% | 1003.7 hPa | - | - | - | - |
| 1778038360 | 22.22° C | 29% | 1003.7 hPa | - | - | - | - |
| 1778037459 | 21.67° C | 29% | 1003.6 hPa | - | - | - | - |
| 1778036559 | 21.67° C | 30% | 1003.5 hPa | - | - | - | - |
| 1778034744 | 21.11° C | 30% | 1003.4 hPa | - | - | - | - |
| 1778033844 | 21.11° C | 30% | 1003.4 hPa | - | - | - | - |
| 1778032944 | 21.11° C | 30% | 1003.2 hPa | - | - | - | - |
| 1778032044 | 21.11° C | 30% | 1003.3 hPa | - | - | - | - |
| 1778031144 | 21.11° C | 30% | 1003.3 hPa | - | - | - | - |
| 1778030244 | 21.11° C | 30% | 1003.4 hPa | - | - | - | - |
| 1778029344 | 21.11° C | 30% | 1003.4 hPa | - | - | - | - |
| 1778028444 | 21.11° C | 30% | 1003.5 hPa | - | - | - | - |
| 1778027544 | 21.11° C | 30% | 1003.5 hPa | - | - | - | - |
| 1778026644 | 21.67° C | 29% | 1003.5 hPa | - | - | - | - |
| 1778025744 | 21.67° C | 30% | 1003.5 hPa | - | - | - | - |
| 1778024844 | 21.67° C | 30% | 1003.6 hPa | - | - | - | - |
| 1778023888 | 21.67° C | 30% | 1003.5 hPa | - | - | - | - |
* Rain since midnight (hover to see other rain measurements)
** Current wind speed in m/s (hover to see current wind gust speed)